Flag for Russia Weather past 2 weeks in Yekaterinburg, Russia

Now
68 °F

Sunny.


Feels Like: 68 °F
Forecast: 64 / 75 °F
Wind: 3 mph from Southwest

Location: Ekaterinburg

Current Time: Jul 30, 2015 at 10:03:04 PM

Latest Report: Jul 30, 2015 at 9:30 PM


Visibility: 10 mi

Pressure: 29.80 "Hg

Humidity: 78%

Dew point: 61 °F

Location of YekaterinburgLocation

Historic Weather in Yekaterinburg — Graph

°F

Yekaterinburg temperature yesterday

Maximum temperature yesterday: 75 °F (at 5:00 PM)
Minimum temperature yesterday: 52 °F (at 11:00 PM)
Average temperature yesterday: 65 °F

Past Weeks' High & Low Weather Summary

 TemperatureHumidityPressure
High79 °F (Jul 30, 2:30 PM)100% (Jul 16, 3:30 AM)29.89 "Hg (Jul 16, 3:30 AM)
Low45 °F (Jul 19, 4:30 AM)44% (Jul 24, 3:30 PM)29.53 "Hg (Jul 18, 12:30 AM)
Average61 °F82%29.72 "Hg
* Reported Jul 15 9:00 PM — Jul 30 9:00 PM, Yekaterinburg, Weather by CustomWeather, © 2015

Note: Actual official high and low records may vary slightly from our data, if they occured in-between our weather recording intervals... More about our weather records

Advertising

Yekaterinburg weather history for previous 24 hours

 ConditionsComfort  
Time TempWeatherWind HumidityBarometerVisibility
9:00 PM
Thu, Jul 30
70 °FSunny.6 mph78%29.80 "Hg10 mi
8:30 PM72 °FSunny.6 mph73%29.77 "Hg10 mi
8:00 PM75 °FSunny.8 mph61%29.77 "Hg10 mi
7:30 PM77 °FSunny.10 mph57%29.77 "Hg10 mi
7:00 PM77 °FSunny.8 mph57%29.77 "Hg10 mi
6:30 PM79 °FSunny.8 mph54%29.77 "Hg10 mi
6:00 PM79 °FSunny.13 mph51%29.77 "Hg10 mi
5:30 PM79 °FSunny.13 mph51%29.80 "Hg10 mi
5:00 PM79 °FSunny.10 mph54%29.80 "Hg10 mi
4:30 PM79 °FPassing clouds.8 mph54%29.80 "HgN/A
4:00 PM79 °FSunny.10 mph54%29.80 "Hg10 mi
3:30 PM79 °FBroken clouds.8 mph58%29.80 "HgN/A
3:00 PM79 °FBroken clouds.8 mph58%29.80 "HgN/A
2:30 PM79 °FPassing clouds.6 mph58%29.83 "HgN/A
2:00 PM77 °FPartly sunny.10 mph61%29.83 "HgN/A
1:30 PM75 °FPassing clouds.6 mph65%29.83 "HgN/A
1:00 PM75 °FPartly sunny.8 mph65%29.83 "HgN/A
12:30 PM73 °FPartly sunny.8 mph69%29.86 "HgN/A
12:00 PM72 °FPartly sunny.6 mph69%29.86 "HgN/A
11:30 AM72 °FPartly sunny.6 mph73%29.86 "HgN/A
11:00 AM72 °FPassing clouds.6 mph73%29.86 "HgN/A
10:30 AM70 °FSunny.6 mph73%29.86 "Hg10 mi
10:00 AM68 °FSunny.6 mph78%29.86 "Hg10 mi
9:30 AM64 °FSunny.6 mph83%29.86 "Hg10 mi
8:30 AM63 °FSunny.3 mph88%29.86 "Hg10 mi
8:00 AM61 °FSunny.1 mph94%29.86 "Hg10 mi
7:30 AM59 °FSunny.1 mph94%29.86 "Hg10 mi
7:00 AM57 °FSunny.No wind94%29.86 "Hg10 mi
6:30 AM57 °FSunny.No wind94%29.86 "Hg10 mi
6:00 AM55 °FSunny.1 mph94%29.83 "Hg10 mi
5:30 AM55 °FClear.No wind94%29.83 "Hg10 mi
5:00 AM54 °FClear.1 mph100%29.83 "Hg10 mi
4:30 AM54 °FPassing clouds.1 mph100%29.86 "HgN/A
4:00 AM54 °FClear.1 mph94%29.86 "Hg10 mi
3:30 AM50 °FClear.1 mph100%29.86 "Hg10 mi
3:00 AM48 °FClear.No wind100%29.83 "Hg10 mi
2:30 AM50 °FClear.No wind100%29.86 "Hg10 mi
2:00 AM50 °FClear.1 mph94%29.83 "Hg10 mi
1:30 AM50 °FClear.1 mph94%29.83 "Hg10 mi
1:00 AM52 °FClear.1 mph94%29.83 "Hg10 mi
12:30 AM52 °FClear.1 mph94%29.83 "Hg10 mi
12:00 AM52 °FClear.No wind94%29.83 "Hg10 mi
11:30 PM
Wed, Jul 29
52 °FClear.No wind94%29.86 "Hg10 mi
11:00 PM52 °FClear.1 mph88%29.86 "Hg10 mi
10:30 PM54 °FClear.No wind82%29.86 "Hg10 mi
10:00 PM59 °FSunny.No wind72%29.86 "Hg10 mi
Weather by CustomWeather, © 2015

See weather overviewHow to use our weather pages